KLM861 EHAM-RJAA

Flight info

Callsign KLM861
Flight time N/A
Altitude 31000
Route ARNEM L620 HMM DCT NOMKA L620 OMELO DCT PEPIK DCT BUDOP DCT LUGEB DCT UDROS DCT CRM/N0488F330 UM11 REBLO DCT MATAL T916 BALUN/K0906F330 T916 TUROK/K0898F350 T916 PIGAL M610 RULAD/K0902S1070 A343 POSOT B215 FKG W188 LIKMI W270 DKO W69 TOREL/K0896S1130 W69 HUR B339 LADIX W34 VAPGU W100 MUDOT DCT UNSEK A326 DONVO G597 AGAVO/N0485F370 Y644 EGOBA Y697 LANAT Y51 SAMON Y517 ESKAS Y303 ENTAK Y30 SWAMP
Aircraft B77W/H-SDE1E2E3FGHIJ2J3J4J5M1RWXY/LB1D1

Departure

Time 2026-04-28 16:34
Airport Amsterdam Airport Schiphol (EHAM)

Arrival

Time N/A
Airport Narita International Airport (RJAA)
Time Latitude Longitude Altitude Speed Heading
2026-04-28 16:04 52.31391 4.76301 3 ft 0 kts 206°
2026-04-28 16:21 52.31400 4.76308 2 ft 4 kts 209°
2026-04-28 16:22 52.31423 4.76330 3 ft 4 kts 200°
2026-04-28 16:22 52.31442 4.76338 2 ft 4 kts 170°
2026-04-28 16:22 52.31458 4.76320 6 ft 4 kts 122°
2026-04-28 16:22 52.31461 4.76283 5 ft 4 kts 75°
2026-04-28 16:23 52.31457 4.76256 4 ft 0 kts 86°
2026-04-28 16:25 52.31457 4.76257 5 ft 0 kts 86°
2026-04-28 16:26 52.31458 4.76268 5 ft 2 kts 86°
2026-04-28 16:26 52.31458 4.76269 5 ft 0 kts 86°
2026-04-28 16:27 52.31458 4.76278 5 ft 3 kts 86°
2026-04-28 16:28 52.31460 4.76332 4 ft 5 kts 86°
2026-04-28 16:28 52.31462 4.76370 3 ft 5 kts 86°
2026-04-28 16:28 52.31482 4.76461 3 ft 10 kts 53°
2026-04-28 16:28 52.31536 4.76523 2 ft 10 kts
2026-04-28 16:29 52.31548 4.76323 2 ft 10 kts 259°
2026-04-28 16:29 52.31536 4.76095 2 ft 10 kts 266°
2026-04-28 16:30 52.31531 4.75974 2 ft 11 kts 267°
2026-04-28 16:30 52.31527 4.75851 2 ft 11 kts 266°
2026-04-28 16:30 52.31522 4.75712 2 ft 13 kts 267°
2026-04-28 16:30 52.31517 4.75565 2 ft 13 kts 267°
2026-04-28 16:31 52.31512 4.75418 2 ft 13 kts 267°
2026-04-28 16:31 52.31507 4.75272 3 ft 13 kts 265°
2026-04-28 16:31 52.31502 4.75125 2 ft 13 kts 266°
2026-04-28 16:31 52.31497 4.74977 2 ft 13 kts 266°
2026-04-28 16:32 52.31491 4.74831 2 ft 11 kts 267°
2026-04-28 16:32 52.31566 4.74664 2 ft 11 kts 354°
2026-04-28 16:32 52.31649 4.74696 2 ft 13 kts 45°
2026-04-28 16:33 52.31671 4.74829 1 ft 3 kts 85°
2026-04-28 16:33 52.31678 4.75041 -1 ft 54 kts 87°
2026-04-28 16:33 52.31720 4.76135 1 ft 138 kts 87°
2026-04-28 16:34 52.31776 4.78136 182 ft 199 kts 88°
2026-04-28 16:34 52.31804 4.80383 1348 ft 193 kts 84°
2026-04-28 16:34 52.31885 4.82600 2174 ft 203 kts 84°
2026-04-28 16:34 52.31981 4.85037 2382 ft 225 kts 83°
2026-04-28 16:35 52.31988 4.86784 2655 ft 232 kts 96°
2026-04-28 16:35 52.31400 4.89315 3133 ft 244 kts 112°
2026-04-28 16:35 52.30700 4.91806 3797 ft 246 kts 110°
2026-04-28 16:35 52.30023 4.94396 4502 ft 250 kts 111°
2026-04-28 16:36 52.29368 4.97023 5302 ft 248 kts 107°
2026-04-28 16:36 52.28859 4.99764 5919 ft 254 kts 104°
2026-04-28 16:36 52.28399 5.02543 6656 ft 256 kts 104°
2026-04-28 16:36 52.27930 5.05371 7242 ft 258 kts 104°
2026-04-28 16:37 52.27447 5.08230 7832 ft 263 kts 104°
2026-04-28 16:37 52.26962 5.11077 8619 ft 259 kts 104°
2026-04-28 16:37 52.26475 5.13910 9294 ft 260 kts 104°
2026-04-28 16:38 52.25454 5.19762 10315 ft 272 kts 105°
2026-04-28 16:38 52.24922 5.22790 10647 ft 286 kts 104°
2026-04-28 16:38 52.24370 5.26027 10808 ft 304 kts 101°
2026-04-28 16:38 52.24063 5.29542 10969 ft 324 kts 94°
2026-04-28 16:39 52.23919 5.33301 11191 ft 342 kts 92°
2026-04-28 16:39 52.23787 5.37249 11630 ft 352 kts 93°
2026-04-28 16:39 52.23624 5.41240 12418 ft 353 kts 94°
2026-04-28 16:39 52.23432 5.45264 13154 ft 356 kts 94°
2026-04-28 16:40 52.23226 5.49315 13801 ft 361 kts 94°
2026-04-28 16:40 52.22955 5.53393 14479 ft 361 kts 101°
2026-04-28 16:40 52.22165 5.57340 14841 ft 373 kts 111°
2026-04-28 16:40 52.21136 5.61284 15297 ft 382 kts 112°
2026-04-28 16:41 52.20097 5.65290 15946 ft 384 kts 111°
2026-04-28 16:41 52.19074 5.69310 16711 ft 383 kts 110°
2026-04-28 16:41 52.18066 5.73347 17352 ft 387 kts 110°
2026-04-28 16:41 52.17057 5.77439 17884 ft 393 kts 110°
2026-04-28 16:42 52.16033 5.81606 18448 ft 398 kts 110°
2026-04-28 16:42 52.15002 5.85802 19069 ft 398 kts 109°
2026-04-28 16:42 52.13973 5.89991 19636 ft 402 kts 110°
2026-04-28 16:42 52.12929 5.94240 20065 ft 409 kts 110°
2026-04-28 16:43 52.11864 5.98561 20544 ft 413 kts 110°
2026-04-28 16:43 52.10786 6.02918 21052 ft 416 kts 110°
2026-04-28 16:43 52.09708 6.07300 21567 ft 419 kts 108°
2026-04-28 16:43 52.08936 6.11853 22021 ft 420 kts 99°
2026-04-28 16:44 52.08490 6.16552 22562 ft 421 kts 96°
2026-04-28 16:44 52.08087 6.21247 23217 ft 420 kts 97°
2026-04-28 16:44 52.07666 6.25972 23709 ft 424 kts 97°
2026-04-28 16:44 52.07212 6.30732 24132 ft 426 kts 97°
2026-04-28 16:45 52.06736 6.35485 24568 ft 429 kts 98°
2026-04-28 16:45 52.06242 6.40276 24939 ft 433 kts 97°
2026-04-28 16:45 52.05734 6.45123 25256 ft 437 kts 98°
2026-04-28 16:45 52.05217 6.50011 25588 ft 441 kts 98°
2026-04-28 16:46 52.04697 6.54933 25935 ft 445 kts 98°
2026-04-28 16:46 52.04168 6.59890 26376 ft 445 kts 97°
2026-04-28 16:46 52.03641 6.64842 26800 ft 446 kts 98°
2026-04-28 16:46 52.03110 6.69818 27109 ft 451 kts 97°
2026-04-28 16:47 52.02567 6.74847 27461 ft 452 kts 97°
2026-04-28 16:47 52.01902 6.79856 27802 ft 457 kts 102°
2026-04-28 16:47 52.01088 6.84877 28025 ft 462 kts 103°
2026-04-28 16:47 52.00263 6.89925 28286 ft 466 kts 102°
2026-04-28 16:48 51.99438 6.95036 28485 ft 471 kts 101°
2026-04-28 16:48 51.98609 7.00203 28717 ft 475 kts 102°
2026-04-28 16:48 51.97779 7.05386 29099 ft 475 kts 102°
2026-04-28 16:49 51.96047 7.15782 29261 ft 480 kts 104°
2026-04-28 16:49 51.94111 7.26133 29233 ft 481 kts 105°
2026-04-28 16:50 51.92141 7.36529 29243 ft 486 kts 105°
2026-04-28 16:50 51.90163 7.47092 29248 ft 494 kts 105°
2026-04-28 16:51 51.88169 7.57730 29243 ft 498 kts 105°
2026-04-28 16:51 51.86166 7.68339 29228 ft 489 kts 104°
2026-04-28 16:52 51.84539 7.79016 29242 ft 490 kts 100°
2026-04-28 16:52 51.83118 7.89834 29245 ft 494 kts 99°
2026-04-28 16:53 51.81663 8.00720 29236 ft 497 kts 100°
2026-04-28 16:53 51.80179 8.11636 29233 ft 497 kts 101°
2026-04-28 16:54 51.78678 8.22540 29229 ft 497 kts 101°
2026-04-28 16:54 51.77167 8.33416 29231 ft 497 kts 101°
2026-04-28 16:55 51.75645 8.44301 29242 ft 498 kts 102°
2026-04-28 16:55 51.74113 8.55216 29243 ft 499 kts 101°
2026-04-28 16:56 51.72566 8.66137 29235 ft 500 kts 101°
2026-04-28 16:56 51.71002 8.77109 29252 ft 505 kts 102°
2026-04-28 16:57 51.69408 8.88190 29248 ft 509 kts 102°
2026-04-28 16:57 51.67805 8.99255 29234 ft 504 kts 102°
2026-04-28 16:58 51.66208 9.10209 29231 ft 502 kts 102°
2026-04-28 16:58 51.64603 9.21140 29247 ft 502 kts 102°
2026-04-28 16:59 51.62982 9.32111 29249 ft 504 kts 102°
2026-04-28 16:59 51.61347 9.43088 29234 ft 505 kts 103°
2026-04-28 17:00 51.59700 9.54073 29229 ft 506 kts 102°
2026-04-28 17:00 51.58041 9.65061 29235 ft 505 kts 103°
2026-04-28 17:01 51.56372 9.76038 29243 ft 506 kts 103°
2026-04-28 17:01 51.54694 9.87003 29244 ft 506 kts 103°
2026-04-28 17:02 51.53015 9.97899 29257 ft 506 kts 103°
2026-04-28 17:02 51.51314 10.08864 29248 ft 506 kts 103°
2026-04-28 17:03 51.48742 10.25302 29263 ft 507 kts 103°
2026-04-28 17:03 51.47012 10.36272 29262 ft 508 kts 103°
2026-04-28 17:04 51.44394 10.52745 29265 ft 508 kts 103°
2026-04-28 17:05 51.41770 10.69197 29266 ft 509 kts 103°
2026-04-28 17:06 51.39115 10.85704 29266 ft 510 kts 104°
2026-04-28 17:06 51.36447 11.02198 29266 ft 510 kts 104°
2026-04-28 17:07 51.34675 11.13201 29268 ft 511 kts 104°
2026-04-28 17:07 51.32888 11.24217 29275 ft 512 kts 104°
2026-04-28 17:08 51.31084 11.35243 29260 ft 513 kts 104°
2026-04-28 17:08 51.29271 11.46274 29275 ft 513 kts 104°
2026-04-28 17:09 51.27370 11.57262 29279 ft 514 kts 105°
2026-04-28 17:09 51.25511 11.68291 29273 ft 514 kts 104°
2026-04-28 17:10 51.23688 11.79328 29269 ft 515 kts 104°
2026-04-28 17:10 51.21835 11.90364 29274 ft 515 kts 104°
2026-04-28 17:11 51.19955 12.01387 29288 ft 516 kts 104°
2026-04-28 17:11 51.18039 12.12427 29276 ft 517 kts 104°
2026-04-28 17:12 51.16117 12.23475 29249 ft 518 kts 105°
2026-04-28 17:12 51.14177 12.34517 29243 ft 518 kts 105°
2026-04-28 17:13 51.12235 12.45499 29247 ft 519 kts 105°
2026-04-28 17:13 51.10257 12.56640 29243 ft 520 kts 105°
2026-04-28 17:14 51.08273 12.67711 29243 ft 521 kts 105°
2026-04-28 17:14 51.06271 12.78705 29242 ft 521 kts 105°
2026-04-28 17:15 51.04245 12.89766 29351 ft 525 kts 105°
2026-04-28 17:15 51.03225 12.95324 29637 ft 525 kts 105°
2026-04-28 17:15 51.02197 13.00909 30051 ft 524 kts 105°
2026-04-28 17:16 51.01174 13.06446 30455 ft 522 kts 106°
2026-04-28 17:16 51.00153 13.11963 30803 ft 521 kts 106°
2026-04-28 17:16 50.99130 13.17471 31080 ft 521 kts 106°
2026-04-28 17:16 50.98100 13.23007 31189 ft 523 kts 106°
2026-04-28 17:17 50.96034 13.34081 31257 ft 524 kts 105°
2026-04-28 17:17 50.94074 13.45217 31250 ft 524 kts 105°
2026-04-28 17:18 50.92068 13.56307 31239 ft 524 kts 106°
2026-04-28 17:18 50.89964 13.67366 31238 ft 524 kts 106°
2026-04-28 17:19 50.87887 13.78410 31238 ft 524 kts 106°
2026-04-28 17:19 50.85813 13.89468 31235 ft 524 kts 106°
2026-04-28 17:20 50.83546 13.98314 31243 ft 523 kts 120°
2026-04-28 17:20 50.79298 14.07578 31232 ft 520 kts 136°
2026-04-28 17:21 50.74137 14.15594 31241 ft 520 kts 137°
2026-04-28 17:22 50.66398 14.27637 31216 ft 522 kts 137°
2026-04-28 17:22 50.61256 14.35725 31217 ft 522 kts 137°
2026-04-28 17:23 50.53555 14.47824 31214 ft 522 kts 137°
2026-04-28 17:23 50.48407 14.55873 31218 ft 522 kts 137°
2026-04-28 17:24 50.43255 14.63895 31206 ft 522 kts 137°
2026-04-28 17:24 50.38087 14.71916 31185 ft 522 kts 138°
2026-04-28 17:25 50.30339 14.83893 31194 ft 522 kts 138°
2026-04-28 17:26 50.25156 14.91873 31203 ft 524 kts 138°
2026-04-28 17:26 50.19957 14.99851 31201 ft 525 kts 138°
2026-04-28 17:27 50.14736 15.07839 31196 ft 526 kts 138°
2026-04-28 17:27 50.09510 15.15808 31202 ft 526 kts 138°
2026-04-28 17:28 50.04276 15.23764 31211 ft 526 kts 138°
2026-04-28 17:28 49.96409 15.35672 31193 ft 527 kts 138°
2026-04-28 17:29 49.91154 15.43595 31187 ft 527 kts 138°
2026-04-28 17:30 49.83266 15.55441 31189 ft 526 kts 139°
2026-04-28 17:30 49.75368 15.67245 31183 ft 526 kts 139°
2026-04-28 17:31 49.67483 15.78972 31179 ft 527 kts 139°
2026-04-28 17:32 49.59545 15.90724 31177 ft 528 kts 139°
2026-04-28 17:32 49.54240 15.98545 31176 ft 528 kts 139°
2026-04-28 17:33 49.48924 16.06360 31163 ft 528 kts 139°
2026-04-28 17:33 49.44513 16.12826 31167 ft 527 kts 139°
2026-04-28 17:34 49.38301 16.21902 31171 ft 527 kts 139°
2026-04-28 17:34 49.32984 16.29643 31166 ft 528 kts 139°
2026-04-28 17:35 49.27653 16.37380 31165 ft 528 kts 139°
2026-04-28 17:35 49.22314 16.45107 31156 ft 528 kts 139°
2026-04-28 17:36 49.16969 16.52817 31153 ft 528 kts 139°
2026-04-28 17:36 49.11623 16.60504 31192 ft 528 kts 139°
2026-04-28 17:37 49.06265 16.68185 31189 ft 529 kts 140°
2026-04-28 17:37 49.00888 16.75869 31183 ft 530 kts 140°
2026-04-28 17:38 48.95501 16.83545 31146 ft 530 kts 140°
2026-04-28 17:38 48.90113 16.91200 31151 ft 530 kts 140°
2026-04-28 17:39 48.84728 16.98828 31145 ft 530 kts 140°
2026-04-28 17:40 48.76993 17.10809 31130 ft 533 kts 129°
2026-04-28 17:40 48.72868 17.20069 31146 ft 534 kts 124°
2026-04-28 17:41 48.68811 17.29477 31133 ft 534 kts 125°
2026-04-28 17:41 48.64708 17.38836 31135 ft 534 kts 125°
2026-04-28 17:42 48.60575 17.48169 31131 ft 534 kts 126°
2026-04-28 17:42 48.56429 17.57493 31135 ft 535 kts 126°
2026-04-28 17:43 48.52267 17.66826 31126 ft 536 kts 126°
2026-04-28 17:43 48.48104 17.76138 31130 ft 536 kts 126°
2026-04-28 17:44 48.43930 17.85442 31129 ft 536 kts 126°
2026-04-28 17:44 48.39751 17.94724 31145 ft 536 kts 126°
2026-04-28 17:45 48.35563 18.03995 31139 ft 536 kts 126°
2026-04-28 17:45 48.31363 18.13258 31141 ft 537 kts 126°
2026-04-28 17:46 48.27151 18.22520 31137 ft 537 kts 126°
2026-04-28 17:46 48.22919 18.31790 31139 ft 540 kts 126°
2026-04-28 17:47 48.18659 18.41089 31131 ft 542 kts 126°
2026-04-28 17:47 48.14373 18.50416 31127 ft 543 kts 126°
2026-04-28 17:48 48.10083 18.59720 31141 ft 544 kts 126°
2026-04-28 17:48 48.05782 18.69017 31139 ft 543 kts 126°
2026-04-28 17:49 48.01491 18.78260 31124 ft 541 kts 126°
2026-04-28 17:49 47.97195 18.87481 31132 ft 539 kts 126°
2026-04-28 17:50 47.92912 18.96644 31107 ft 540 kts 127°
2026-04-28 17:50 47.88602 19.05830 31139 ft 547 kts 127°
2026-04-28 17:51 47.84234 19.15110 31130 ft 547 kts 127°
2026-04-28 17:51 47.79869 19.24357 31139 ft 545 kts 127°
2026-04-28 17:52 47.75505 19.33569 31124 ft 545 kts 127°
2026-04-28 17:52 47.68950 19.47344 31119 ft 544 kts 127°
2026-04-28 17:53 47.64569 19.56514 31147 ft 545 kts 127°
2026-04-28 17:53 47.60179 19.65671 31156 ft 545 kts 127°
2026-04-28 17:54 47.55778 19.74821 31139 ft 547 kts 127°
2026-04-28 17:54 47.51340 19.84016 31137 ft 550 kts 127°
2026-04-28 17:55 47.46874 19.93238 31144 ft 553 kts 127°
2026-04-28 17:55 47.42388 20.02472 31140 ft 554 kts 127°
2026-04-28 17:56 47.37894 20.11693 31134 ft 553 kts 128°
2026-04-28 17:56 47.33401 20.20880 31129 ft 551 kts 128°
2026-04-28 17:57 47.28915 20.30021 31138 ft 550 kts 128°
2026-04-28 17:57 47.24436 20.39117 31136 ft 548 kts 128°
2026-04-28 17:58 47.19949 20.48200 31125 ft 549 kts 128°
2026-04-28 17:58 47.15443 20.57291 31140 ft 552 kts 128°
2026-04-28 17:59 47.10905 20.66416 31144 ft 555 kts 128°
2026-04-28 17:59 47.06328 20.75590 31138 ft 557 kts 128°
2026-04-28 18:00 47.01737 20.84763 31135 ft 558 kts 128°
2026-04-28 18:00 46.97141 20.93916 31149 ft 557 kts 128°
2026-04-28 18:01 46.92552 21.03023 31136 ft 555 kts 128°
2026-04-28 18:01 46.87999 21.12031 31128 ft 553 kts 128°
2026-04-28 18:02 46.83427 21.21046 31127 ft 552 kts 129°
2026-04-28 18:02 46.78853 21.30036 31134 ft 551 kts 129°
2026-04-28 18:03 46.74285 21.38988 31130 ft 551 kts 129°
2026-04-28 18:03 46.69704 21.47968 31134 ft 552 kts 127°
2026-04-28 18:04 46.65749 21.57560 31142 ft 554 kts 118°
2026-04-28 18:04 46.62145 21.67463 31130 ft 555 kts 118°
2026-04-28 18:05 46.59090 21.75760 31120 ft 555 kts 119°
2026-04-28 18:05 46.54809 21.87213 31123 ft 555 kts 119°
2026-04-28 18:06 46.51104 21.97040 31115 ft 555 kts 120°
2026-04-28 18:06 46.48019 22.05200 31069 ft 554 kts 119°
2026-04-28 18:07 46.44280 22.15066 31110 ft 555 kts 120°
2026-04-28 18:07 46.40543 22.24897 31117 ft 557 kts 119°
2026-04-28 18:08 46.36811 22.34678 31115 ft 559 kts 120°
2026-04-28 18:08 46.33035 22.44539 31107 ft 560 kts 120°
2026-04-28 18:09 46.29256 22.54371 31099 ft 560 kts 120°
2026-04-28 18:09 46.25439 22.64267 31101 ft 559 kts 120°
2026-04-28 18:10 46.21677 22.73986 31087 ft 558 kts 120°
2026-04-28 18:10 46.17882 22.83754 31082 ft 557 kts 120°
2026-04-28 18:11 46.14090 22.93479 31088 ft 555 kts 120°
2026-04-28 18:11 46.10301 23.03162 31083 ft 553 kts 120°
2026-04-28 18:12 46.06520 23.12792 31093 ft 552 kts 120°
2026-04-28 18:12 46.02729 23.22414 31096 ft 552 kts 120°
2026-04-28 18:13 45.98935 23.32001 31073 ft 552 kts 120°
2026-04-28 18:13 45.95131 23.41597 31095 ft 553 kts 120°
2026-04-28 18:14 45.91308 23.51198 31097 ft 554 kts 120°
2026-04-28 18:14 45.87473 23.60796 31110 ft 555 kts 120°
2026-04-28 18:15 45.83619 23.70407 31099 ft 555 kts 120°
2026-04-28 18:15 45.79769 23.79975 31094 ft 554 kts 120°
2026-04-28 18:16 45.75908 23.89537 31089 ft 553 kts 120°
2026-04-28 18:16 45.72060 23.99039 31108 ft 552 kts 120°
2026-04-28 18:17 45.68191 24.08554 31094 ft 553 kts 120°
2026-04-28 18:17 45.64317 24.18050 31105 ft 552 kts 121°
2026-04-28 18:18 45.60457 24.27484 31090 ft 548 kts 121°
2026-04-28 18:18 45.57266 24.35255 31084 ft 545 kts 121°
2026-04-28 18:19 45.52810 24.46071 31068 ft 544 kts 121°
2026-04-28 18:19 45.48968 24.55363 31079 ft 544 kts 121°
2026-04-28 18:20 45.45122 24.64636 31067 ft 544 kts 121°
2026-04-28 18:20 45.41268 24.73898 31074 ft 543 kts 121°
2026-04-28 18:21 45.37409 24.83134 31080 ft 543 kts 121°
2026-04-28 18:21 45.33538 24.92378 31067 ft 544 kts 121°
2026-04-28 18:22 45.29660 25.01610 31060 ft 544 kts 121°
2026-04-28 18:22 45.25771 25.10827 31075 ft 543 kts 121°
2026-04-28 18:23 45.21883 25.20014 31064 ft 542 kts 121°
2026-04-28 18:23 45.18005 25.29149 31058 ft 540 kts 121°
2026-04-28 18:24 45.14782 25.36724 31064 ft 539 kts 121°
2026-04-28 18:24 45.10251 25.47335 31071 ft 538 kts 122°
2026-04-28 18:25 45.06369 25.56391 31035 ft 538 kts 121°
2026-04-28 18:26 45.00539 25.69939 31065 ft 538 kts 122°
2026-04-28 18:26 44.96639 25.78967 31066 ft 538 kts 122°
2026-04-28 18:27 44.92739 25.87967 31059 ft 537 kts 122°
2026-04-28 18:27 44.88859 25.96890 31064 ft 537 kts 122°
2026-04-28 18:28 44.84954 26.05845 31079 ft 536 kts 122°
2026-04-28 18:28 44.81046 26.14779 31076 ft 535 kts 122°
2026-04-28 18:29 44.77535 26.22780 31081 ft 534 kts 122°
2026-04-28 18:29 44.73626 26.31662 31074 ft 534 kts 122°
2026-04-28 18:30 44.69714 26.40523 31064 ft 533 kts 122°
2026-04-28 18:30 44.65795 26.49373 31076 ft 533 kts 122°
2026-04-28 18:31 44.61869 26.58210 31074 ft 533 kts 122°
2026-04-28 18:31 44.57940 26.67029 31045 ft 533 kts 122°
2026-04-28 18:32 44.54010 26.75822 31067 ft 532 kts 122°
2026-04-28 18:32 44.50073 26.84602 31068 ft 532 kts 123°
2026-04-28 18:33 44.46129 26.93374 31068 ft 532 kts 123°
2026-04-28 18:33 44.42176 27.02136 31072 ft 532 kts 123°
2026-04-28 18:34 44.38217 27.10886 31070 ft 533 kts 123°
2026-04-28 18:34 44.34241 27.19647 31052 ft 537 kts 122°
2026-04-28 18:35 44.30196 27.28534 31085 ft 547 kts 122°
2026-04-28 18:35 44.26095 27.37518 31072 ft 549 kts 122°
2026-04-28 18:36 44.21993 27.46474 31074 ft 547 kts 122°
2026-04-28 18:36 44.17918 27.55342 31071 ft 546 kts 122°
2026-04-28 18:37 44.13824 27.64224 31074 ft 544 kts 122°
2026-04-28 18:37 44.09733 27.73073 31064 ft 543 kts 122°
2026-04-28 18:38 44.05646 27.81886 31075 ft 541 kts 123°
2026-04-28 18:38 44.01562 27.90669 31088 ft 540 kts 123°
2026-04-28 18:39 43.97480 27.99420 31094 ft 540 kts 123°
2026-04-28 18:39 43.93393 28.08155 31109 ft 539 kts 123°
2026-04-28 18:40 43.89996 28.15394 31107 ft 538 kts 123°
2026-04-28 18:40 43.85216 28.25552 31111 ft 538 kts 123°
2026-04-28 18:41 43.81127 28.34215 31124 ft 537 kts 123°
2026-04-28 18:41 43.77041 28.42848 31123 ft 536 kts 123°
2026-04-28 18:42 43.72957 28.51458 31134 ft 535 kts 123°
2026-04-28 18:42 43.68941 28.60119 31125 ft 534 kts 123°
2026-04-28 18:43 43.64979 28.68763 31140 ft 532 kts 123°
2026-04-28 18:43 43.61009 28.77379 31121 ft 531 kts 122°
2026-04-28 18:44 43.57027 28.85966 31161 ft 531 kts 123°
2026-04-28 18:44 43.51040 28.98814 31164 ft 531 kts 123°
2026-04-28 18:45 43.47047 29.07353 31159 ft 531 kts 123°
2026-04-28 18:45 43.43045 29.15888 31163 ft 529 kts 123°
2026-04-28 18:46 43.39052 29.24379 31155 ft 528 kts 123°
2026-04-28 18:46 43.35060 29.32845 31157 ft 527 kts 124°
2026-04-28 18:47 43.31069 29.41284 31160 ft 526 kts 124°
2026-04-28 18:47 43.27082 29.49689 31155 ft 525 kts 124°
2026-04-28 18:48 43.23101 29.58058 31150 ft 524 kts 124°
2026-04-28 18:48 43.19117 29.66410 31160 ft 523 kts 124°
2026-04-28 18:49 43.16448 29.71993 31154 ft 523 kts 124°
2026-04-28 18:49 43.11131 29.83082 31150 ft 524 kts 124°